JA3VQW-13 Weather Reports


time (UTC)temp
C
wind
direction
speed
KPH
gust
KPH
rain 1hr
cm
rain 24hr
cm
rain mn
cm
humidity
%
barometer
mb
20260503010617 20 270 0.0 0.0 0.00 0.00 0.00 39 1001.0
20260503005632 20 270 0.0 0.0 0.00 0.00 0.00 39 1001.0
20260503003616 20 270 0.0 0.0 0.00 0.00 0.00 38 1001.0
20260503002631 20 270 0.0 0.0 0.00 0.00 0.00 37 1001.0
20260503001131 20 270 0.0 0.0 0.00 0.00 0.00 37 1001.0
20260503000618 20 315 0.0 0.0 0.00 0.00 0.00 37 1001.0
20260502235632 20 180 0.0 0.0 0.00 0.00 0.00 36 1001.0
20260502234132 19 180 0.0 0.0 0.00 0.00 0.00 38 1001.0
20260502233617 19 180 0.0 0.0 0.00 0.00 0.00 38 1001.0
20260502232632 18 180 0.0 0.0 0.00 0.00 0.00 39 1001.0
20260502231131 18 180 0.0 0.0 0.00 0.00 0.00 42 1001.0
20260502230617 18 180 0.0 0.0 0.00 0.00 0.00 42 1001.0
20260502225632 18 180 0.0 0.0 0.00 0.00 0.00 44 1001.0
20260502224130 17 180 0.0 0.0 0.00 0.00 0.00 45 1001.0
20260502223617 17 180 0.0 0.0 0.00 0.00 0.00 45 1002.0
20260502222630 17 180 0.0 0.0 0.00 0.00 0.00 45 1002.0
20260502221132 17 180 0.0 0.0 0.00 0.00 0.00 46 1002.0
20260502220617 17 180 0.0 0.0 0.00 0.00 0.00 46 1002.0
20260502215632 17 180 0.0 0.0 0.00 0.00 0.00 48 1002.0
20260502214131 17 180 0.0 0.0 0.00 0.00 0.00 48 1002.0
20260502213616 17 180 0.0 0.0 0.00 0.00 0.00 48 1002.0
20260502212630 17 180 0.0 0.0 0.00 0.00 0.00 48 1002.0
20260502211130 17 180 0.0 0.0 0.00 0.00 0.00 48 1002.0
20260502210617 17 180 0.0 0.0 0.00 0.00 0.00 48 1002.0
20260502205630 17 180 0.0 0.0 0.00 0.00 0.00 48 1002.0
20260502203617 17 180 0.0 0.0 0.00 0.00 0.00 47 1002.0
20260502202631 17 180 0.0 0.0 0.00 0.00 0.00 47 1002.0
20260502201132 17 180 0.0 0.0 0.00 0.00 0.00 46 1002.0
20260502200617 17 180 0.0 0.0 0.00 0.00 0.00 46 1002.0
20260502195631 17 135 0.0 0.0 0.00 0.00 0.00 46 1002.0
20260502194131 17 135 0.0 0.0 0.00 0.00 0.00 47 1002.0
20260502193616 17 135 0.0 0.0 0.00 0.00 0.00 47 1002.0
20260502192631 17 135 0.0 0.0 0.00 0.00 0.00 47 1002.0
20260502191131 17 135 0.0 0.0 0.00 0.00 0.00 47 1002.0
20260502190616 17 135 0.0 0.0 0.00 0.00 0.00 47 1002.0
20260502185631 17 135 0.0 0.0 0.00 0.00 0.00 46 1002.0
20260502184130 17 135 0.0 0.0 0.00 0.00 0.00 45 1002.0
20260502183617 17 135 0.0 0.0 0.00 0.00 0.00 45 1002.0
20260502182630 17 135 0.0 0.0 0.00 0.00 0.00 45 1002.0
20260502181132 17 135 0.0 0.0 0.00 0.00 0.00 45 1002.0
20260502180616 17 135 0.0 0.0 0.00 0.00 0.00 45 1002.0
20260502164130 17 135 0.0 0.0 0.00 0.00 0.00 42 1003.0
20260502163617 17 135 0.0 0.0 0.00 0.00 0.00 42 1003.0
20260502162630 17 135 0.0 0.0 0.00 0.00 0.00 42 1003.0
20260502161130 17 135 0.0 0.0 0.00 0.00 0.00 42 1003.0
20260502160617 17 135 0.0 0.0 0.00 0.00 0.00 42 1003.0
20260502151131 17 135 0.0 0.0 0.00 0.00 0.00 44 1003.0
20260502150615 17 135 0.0 0.0 0.00 0.00 0.00 44 1003.0
20260502130616 19 225 0.0 0.0 0.00 0.00 0.00 35 1004.0
20260502123617 19 225 0.0 0.0 0.00 0.00 0.00 34 1004.0
20260502122630 20 225 0.0 0.0 0.00 0.00 0.00 33 1004.0
20260502121130 20 225 0.0 0.0 0.00 0.00 0.00 33 1004.0
20260502120616 20 225 0.0 0.0 0.00 0.00 0.00 33 1003.0
20260502115629 20 225 0.0 0.0 0.00 0.00 0.00 33 1003.0
20260502114129 20 225 0.0 0.0 0.00 0.00 0.00 32 1004.0
20260502113615 20 225 0.0 0.0 0.00 0.00 0.00 32 1003.0
20260502112630 20 225 0.0 0.0 0.00 0.00 0.00 32 1003.0
20260502111130 20 225 0.0 0.0 0.00 0.00 0.00 30 1003.0
20260502110617 21 225 0.0 0.0 0.00 0.00 0.00 29 1003.0
20260502105630 21 225 0.0 0.0 0.00 0.00 0.00 27 1003.0
20260502104131 21 225 0.0 0.0 0.00 0.00 0.00 26 1003.0
20260502103616 21 225 0.0 3.2 0.00 0.00 0.00 26 1003.0
20260502102630 21 270 0.0 0.0 0.00 0.00 0.00 25 1003.0
20260502101130 21 270 0.0 3.2 0.00 0.00 0.00 25 1002.0
20260502100615 21 225 1.6 3.2 0.00 0.00 0.00 24 1002.0
20260502091130 22 231 1.6 3.2 0.00 0.00 0.00 22 1002.0
20260502090616 22 180 0.0 3.2 0.00 0.00 0.00 22 1002.0
20260502071132 23 135 3.2 3.2 0.00 0.00 0.00 21 1001.2
20260502070619 23 270 3.2 3.2 0.00 0.00 0.00 21 1001.0
20260502065632 24 180 3.2 4.8 0.00 0.00 0.00 20 1001.0
20260502064132 24 135 1.6 8.0 0.00 0.00 0.00 21 1002.0
20260502063618 24 315 0.0 4.8 0.00 0.00 0.00 20 1001.0
20260502062632 25 258 1.6 9.7 0.00 0.00 0.00 20 1001.0
20260502061132 26 180 0.0 8.0 0.00 0.00 0.00 20 1001.0
20260502060617 26 135 3.2 3.2 0.00 0.00 0.00 20 1001.0
20260502055632 26 183 3.2 8.0 0.00 0.00 0.00 20 1001.0
20260502054132 26 270 4.8 9.7 0.00 0.00 0.00 20 1002.0
20260502053618 26 180 0.0 4.8 0.00 0.00 0.00 20 1002.0
20260502051132 25 315 1.6 8.0 0.00 0.00 0.00 20 1002.0
20260502050617 25 315 1.6 3.2 0.00 0.00 0.00 20 1002.0
20260502045632 25 270 3.2 8.0 0.00 0.00 0.00 21 1002.0
20260502044132 24 194 1.6 4.8 0.00 0.00 0.00 21 1002.0
20260502043617 24 278 4.8 11.3 0.00 0.00 0.00 21 1002.0
20260502042632 24 202 3.2 8.0 0.00 0.00 0.00 21 1002.0
20260502041132 25 315 1.6 8.0 0.00 0.00 0.00 21 1002.0
20260502040619 24 152 4.8 3.2 0.00 0.00 0.00 21 1002.0
20260502035632 24 145 3.2 4.8 0.00 0.00 0.00 21 1002.0
20260502034132 23 254 4.8 8.0 0.00 0.00 0.00 22 1002.0
20260502033617 23 282 3.2 4.8 0.00 0.00 0.00 22 1002.0
20260502032631 23 303 4.8 9.7 0.00 0.00 0.00 22 1002.0
20260502031131 22 215 1.6 4.8 0.00 0.00 0.00 23 1002.0
20260502030618 22 308 3.2 3.2 0.00 0.00 0.00 24 1002.0
20260502025631 22 141 4.8 8.0 0.00 0.00 0.00 24 1002.0
20260502024132 22 130 3.2 8.0 0.00 0.00 0.00 24 1002.0
20260502023618 22 241 4.8 4.8 0.00 0.00 0.00 24 1002.0
20260502022631 21 143 4.8 8.0 0.00 0.00 0.00 25 1002.0
20260502021131 21 280 3.2 8.0 0.00 0.00 0.00 25 1003.0
20260502020618 21 199 4.8 8.0 0.00 0.00 0.00 25 1003.0
20260502015632 20 202 3.2 4.8 0.00 0.00 0.00 26 1003.0
20260502014131 20 135 3.2 9.7 0.00 0.00 0.00 26 1003.0
20260502013618 20 141 3.2 4.8 0.00 0.00 0.00 26 1003.0
20260502012631 20 164 3.2 4.8 0.00 0.00 0.00 27 1003.0
20260502011130 19 147 3.2 8.0 0.00 0.00 0.00 29 1003.0